Powrót do katalogu

ONEWEB-0382

AktywnyŁącznośćPO
NORAD 49308·PAYLOAD·🇬🇧 United Kingdom

Wystrzelony Oct 14, 2021 z Vostochny Cosmodrome

Loading…

Następne Przeloty (najbliższe 24 godziny)

TLE

ŚwieżeSource: CelesTrak SupGP

Epoka: Sep 14, 2026, 13:29 UTC

1 49308C 21090AF  26257.56196019 -.00000414  00000+0 -10186-2 0  2570
2 49308  87.9139 256.6067 0002268  95.1346  16.4799 13.20773577    10

Śledź ONEWEB-0382 w czasie rzeczywistym z AllMySat

Download on the App Store